^^
Saratoga-Weather Station Historical Data
Daily Summary for July 25, 2021 Units:  Metric    English   Both
Daily Weekly Monthly Yearly Custom
  High: Low: Average:
Temperature: 16.3 °C 13.8 °C 14.9 °C
Dew Point: 15.7 °C 13.3 °C 14.3 °C
Humidity: 97% 96% 97%
Wind Speed: 3.2km/h 0km/h 0.1km/h
Wind Gust: 3.2km/h - -
Wind- - SSW
Pressure: 1008.8 hPa 1008.1 hPa -
Precipitation: 0.0 mm    
Historical Graphs
 
 
Tabular Data for July 25, 2021
Time Temperature Dew Point Pressure Wind Wind Speed Wind Gust Humidity Rainfall Rate (Hourly) solar
00:04 16.2 °C 15.6 °C 1008.8 hPa Calm   1.6 km/h 96% 0.0 mm 0 W/m2
00:09 16.3 °C 15.7 °C 1008.8 hPa Calm     96% 0.0 mm 0 W/m2
00:14 16.3 °C 15.7 °C 1008.8 hPa Calm     96% 0.0 mm 0 W/m2
00:19 16.3 °C 15.7 °C 1008.8 hPa SW 1.4 km/h 1.6 km/h 96% 0.0 mm 0 W/m2
00:24 16.3 °C 15.7 °C 1008.8 hPa SW 1.4 km/h 1.6 km/h 96% 0.0 mm 0 W/m2
00:29 16.3 °C 15.7 °C 1008.8 hPa Calm     96% 0.0 mm 0 W/m2
00:34 16.2 °C 15.6 °C 1008.8 hPa SSW 1.4 km/h 3.2 km/h 96% 0.0 mm 0 W/m2
00:39 16.2 °C 15.6 °C 1008.5 hPa Calm   1.6 km/h 96% 0.0 mm 0 W/m2
00:44 16.1 °C 15.5 °C 1008.5 hPa Calm   3.2 km/h 96% 0.0 mm 0 W/m2
00:49 16 °C 15.4 °C 1008.5 hPa Calm     96% 0.0 mm 0 W/m2
00:54 15.9 °C 15.3 °C 1008.5 hPa Calm     96% 0.0 mm 0 W/m2
00:59 15.8 °C 15.2 °C 1008.5 hPa Calm     96% 0.0 mm 0 W/m2
01:04 15.7 °C 15.1 °C 1008.5 hPa Calm   1.6 km/h 96% 0.0 mm 0 W/m2
01:09 15.6 °C 15 °C 1008.5 hPa SSW 1.4 km/h 1.6 km/h 96% 0.0 mm 0 W/m2
01:14 15.6 °C 15 °C 1008.5 hPa SSW 1.4 km/h 3.2 km/h 96% 0.0 mm 0 W/m2
01:19 15.6 °C 15 °C 1008.5 hPa SSW 1.4 km/h 1.6 km/h 96% 0.0 mm 0 W/m2
01:24 15.5 °C 14.9 °C 1008.8 hPa Calm     96% 0.0 mm 0 W/m2
01:29 15.4 °C 14.8 °C 1008.5 hPa Calm     96% 0.0 mm 0 W/m2
01:34 15.4 °C 14.8 °C 1008.5 hPa Calm     96% 0.0 mm 0 W/m2
01:39 15.4 °C 14.8 °C 1008.5 hPa Calm     96% 0.0 mm 0 W/m2
01:44 15.4 °C 14.8 °C 1008.8 hPa Calm   1.6 km/h 96% 0.0 mm 0 W/m2
01:49 15.4 °C 14.8 °C 1008.8 hPa Calm     96% 0.0 mm 0 W/m2
01:54 15.4 °C 14.8 °C 1008.5 hPa Calm     96% 0.0 mm 0 W/m2
01:59 15.4 °C 14.8 °C 1008.8 hPa Calm     96% 0.0 mm 0 W/m2
02:04 15.3 °C 14.7 °C 1008.8 hPa Calm     96% 0.0 mm 0 W/m2
02:09 15.3 °C 14.7 °C 1008.8 hPa Calm     96% 0.0 mm 0 W/m2
02:14 15.3 °C 14.7 °C 1008.5 hPa Calm     96% 0.0 mm 0 W/m2
02:19 15.2 °C 14.6 °C 1008.5 hPa Calm     96% 0.0 mm 0 W/m2
02:24 15.2 °C 14.6 °C 1008.5 hPa Calm     96% 0.0 mm 0 W/m2
02:29 15.2 °C 14.6 °C 1008.5 hPa Calm     96% 0.0 mm 0 W/m2
02:34 15.1 °C 14.5 °C 1008.5 hPa Calm     96% 0.0 mm 0 W/m2
02:39 15.1 °C 14.5 °C 1008.5 hPa Calm     96% 0.0 mm 0 W/m2
02:44 15.1 °C 14.5 °C 1008.5 hPa Calm     96% 0.0 mm 0 W/m2
02:49 15.1 °C 14.5 °C 1008.5 hPa SSW 3.2 km/h 3.2 km/h 96% 0.0 mm 0 W/m2
02:54 15.1 °C 14.5 °C 1008.5 hPa Calm     96% 0.0 mm 0 W/m2
02:59 15.1 °C 14.5 °C 1008.5 hPa Calm   1.6 km/h 96% 0.0 mm 0 W/m2
03:04 15.1 °C 14.5 °C 1008.5 hPa Calm     96% 0.0 mm 0 W/m2
03:09 15 °C 14.4 °C 1008.5 hPa Calm     96% 0.0 mm 0 W/m2
03:14 14.9 °C 14.3 °C 1008.5 hPa Calm     96% 0.0 mm 0 W/m2
03:19 14.9 °C 14.3 °C 1008.5 hPa Calm     96% 0.0 mm 0 W/m2
03:24 14.8 °C 14.2 °C 1008.5 hPa Calm     96% 0.0 mm 0 W/m2
03:29 14.8 °C 14.2 °C 1008.5 hPa Calm     96% 0.0 mm 0 W/m2
03:34 14.8 °C 14.3 °C 1008.5 hPa Calm     97% 0.0 mm 0 W/m2
03:39 14.7 °C 14.1 °C 1008.5 hPa Calm     96% 0.0 mm 0 W/m2
03:44 14.7 °C 14.1 °C 1008.1 hPa Calm     96% 0.0 mm 0 W/m2
03:49 14.7 °C 14.1 °C 1008.1 hPa Calm     96% 0.0 mm 0 W/m2
03:54 14.7 °C 14.1 °C 1008.5 hPa Calm     96% 0.0 mm 0 W/m2
03:59 14.7 °C 14.1 °C 1008.1 hPa Calm     96% 0.0 mm 0 W/m2
04:04 14.6 °C 14.1 °C 1008.1 hPa Calm     97% 0.0 mm 0 W/m2
04:09 14.6 °C 14.1 °C 1008.1 hPa Calm     97% 0.0 mm 0 W/m2
04:14 14.5 °C 14 °C 1008.1 hPa Calm     97% 0.0 mm 0 W/m2
04:19 14.4 °C 13.8 °C 1008.1 hPa Calm     96% 0.0 mm 0 W/m2
04:24 14.4 °C 13.8 °C 1008.1 hPa Calm     96% 0.0 mm 0 W/m2
04:29 14.4 °C 13.9 °C 1008.1 hPa Calm     97% 0.0 mm 0 W/m2
04:34 14.4 °C 13.9 °C 1008.1 hPa Calm     97% 0.0 mm 0 W/m2
04:39 14.3 °C 13.8 °C 1008.1 hPa Calm     97% 0.0 mm 0 W/m2
04:44 14.3 °C 13.8 °C 1008.1 hPa Calm     97% 0.0 mm 0 W/m2
04:49 14.3 °C 13.8 °C 1008.1 hPa Calm     97% 0.0 mm 0 W/m2
04:54 14.3 °C 13.8 °C 1008.1 hPa Calm     97% 0.0 mm 0 W/m2
04:59 14.3 °C 13.8 °C 1008.1 hPa Calm     97% 0.0 mm 0 W/m2
05:04 14.3 °C 13.8 °C 1008.1 hPa Calm     97% 0.0 mm 0 W/m2
05:09 14.3 °C 13.8 °C 1008.1 hPa ESE 3.2 km/h 3.2 km/h 97% 0.0 mm 0 W/m2
05:14 14.3 °C 13.8 °C 1008.1 hPa Calm     97% 0.0 mm 0 W/m2
05:19 14.2 °C 13.7 °C 1008.1 hPa Calm     97% 0.0 mm 0 W/m2
05:24 14.2 °C 13.7 °C 1008.1 hPa Calm     97% 0.0 mm 0 W/m2
05:29 14.2 °C 13.7 °C 1008.1 hPa Calm     97% 0.0 mm 0 W/m2
05:35 14.1 °C 13.6 °C 1008.1 hPa Calm     97% 0.0 mm 0 W/m2
05:40 14.1 °C 13.6 °C 1008.1 hPa Calm     97% 0.0 mm 0 W/m2
05:45 14 °C 13.5 °C 1008.1 hPa Calm     97% 0.0 mm 0 W/m2
05:50 14 °C 13.5 °C 1008.1 hPa Calm     97% 0.0 mm 0 W/m2
05:55 13.9 °C 13.4 °C 1008.5 hPa Calm     97% 0.0 mm 0 W/m2
06:00 13.9 °C 13.4 °C 1008.5 hPa Calm     97% 0.0 mm 0 W/m2
06:05 14 °C 13.5 °C 1008.1 hPa Calm     97% 0.0 mm 5 W/m2
06:10 13.9 °C 13.4 °C 1008.1 hPa Calm     97% 0.0 mm 7 W/m2
06:15 13.9 °C 13.4 °C 1008.1 hPa Calm     97% 0.0 mm 11 W/m2
06:20 13.8 °C 13.3 °C 1008.5 hPa Calm     97% 0.0 mm 12 W/m2
06:25 13.8 °C 13.3 °C 1008.5 hPa Calm     97% 0.0 mm 16 W/m2
06:30 13.8 °C 13.3 °C 1008.1 hPa Calm     97% 0.0 mm 14 W/m2
06:35 13.9 °C 13.4 °C 1008.1 hPa Calm     97% 0.0 mm 23 W/m2
06:40 14 °C 13.5 °C 1008.5 hPa Calm     97% 0.0 mm 25 W/m2
06:45 14.1 °C 13.6 °C 1008.5 hPa Calm     97% 0.0 mm 32 W/m2
06:50 14.1 °C 13.6 °C 1008.5 hPa Calm     97% 0.0 mm 30 W/m2
06:55 14.2 °C 13.7 °C 1008.5 hPa Calm     97% 0.0 mm 46 W/m2
07:00 14.3 °C 13.8 °C 1008.5 hPa Calm     97% 0.0 mm 49 W/m2
07:05 14.3 °C 13.8 °C 1008.5 hPa Calm     97% 0.0 mm 58 W/m2
07:10 14.4 °C 13.9 °C 1008.5 hPa Calm     97% 0.0 mm 62 W/m2
07:15 14.5 °C 14 °C 1008.5 hPa Calm     97% 0.0 mm 60 W/m2
07:20 14.6 °C 14.1 °C 1008.8 hPa Calm     97% 0.0 mm 62 W/m2
07:25 14.6 °C 14.1 °C 1008.8 hPa Calm     97% 0.0 mm 83 W/m2
07:30 14.7 °C 14.2 °C 1008.8 hPa Calm     97% 0.0 mm 76 W/m2
07:35 14.7 °C 14.2 °C 1008.8 hPa Calm   1.6 km/h 97% 0.0 mm 84 W/m2
07:40 14.7 °C 14.2 °C 1008.5 hPa Calm     97% 0.0 mm 100 W/m2
07:45 14.8 °C 14.3 °C 1008.5 hPa Calm   1.6 km/h 97% 0.0 mm 104 W/m2
07:50 14.8 °C 14.3 °C 1008.8 hPa Calm     97% 0.0 mm 97 W/m2
07:55 14.9 °C 14.4 °C 1008.8 hPa Calm     97% 0.0 mm 130 W/m2
08:00 15.1 °C 14.6 °C 1008.8 hPa Calm     97% 0.0 mm 172 W/m2
08:05 15.1 °C 14.6 °C 1008.8 hPa Calm     97% 0.0 mm 123 W/m2
08:10 15.3 °C 14.8 °C 1008.5 hPa Calm   1.6 km/h 97% 0.0 mm 162 W/m2
08:15 15.4 °C 14.9 °C 1008.5 hPa Calm     97% 0.0 mm 158 W/m2
08:20 15.5 °C 15 °C 1008.5 hPa Calm   1.6 km/h 97% 0.0 mm 105 W/m2
Juneau County Weather
Compliments of Weather Underground - 2 mb